Lid_Strength_Index
0 1 1 1 1 0 -0 0 0 1 1 1 1 0 -0 -0 -0 -1 -1 -1 -1 -1 -2 -2 -1 -1 0 4 5 -0 -2 -1 -1 1 2 4 5 6 8 6 6 7 6 7 7 7 6
1 1 1 1 1 0 0 0 0 1 1 1 1 1 0 -0 -0 -1 -1 -1 -1 -0 -1 -2 -1 -1 2 8 -0 -1 0 -0 1 1 3 3 5 5 6 6 6 5 6 7 7 7 7
1 1 1 1 1 1 0 0 1 1 1 1 1 1 1 0 -0 -1 -1 -1 -1 -2 -1 -1 0 0 3 5 -1 -1 0 1 0 1 4 3 3 5 5 7 6 6 7 7 7 8 7
1 1 1 1 1 1 1 1 1 1 1 1 0 1 1 0 -0 -1 -1 -0 -1 -2 -1 -1 1 1 6 -0 -1 0 -0 1 0 0 2 2 2 4 6 5 6 7 7 10 8 8 8
1 1 1 1 1 1 1 1 1 1 1 1 1 1 2 1 -0 -1 -1 -0 -1 -1 -1 0 2 3 7 -0 2 1 1 3 2 1 1 2 4 7 7 7 9 8 11 10 10 8 8
1 1 1 1 1 1 1 1 1 1 0 1 1 1 2 1 0 -0 0 0 -0 0 2 2 3 5 4 5 2 2 1 1 3 4 5 5 7 8 7 8 12 11 11 10 10 9 8
1 1 1 1 1 1 1 1 1 1 1 1 1 1 1 2 0 0 2 2 4 5 4 6 6 6 5 3 1 2 1 3 3 5 10 7 9 10 9 8 8 8 9 10 10 9 8
1 1 1 1 1 1 1 2 1 2 1 1 2 2 1 1 2 2 2 5 5 4 8 6 6 5 4 3 6 4 2 6 7 10 7 9 11 9 8 8 8 9 10 11 10 10 9
1 1 1 1 1 1 1 2 2 2 2 2 2 2 2 1 3 3 4 5 3 4 7 8 6 6 5 4 6 6 4 5 8 9 9 10 9 8 9 9 9 10 10 11 10 11 11
1 1 1 1 1 1 1 2 2 2 2 2 2 2 2 2 4 5 5 4 3 3 9 10 8 6 6 5 8 5 4 6 8 9 9 9 8 9 9 10 9 11 10 11 11 10 12
1 1 1 1 1 1 1 2 2 2 2 3 3 3 3 3 5 6 5 3 4 6 17 9 8 4 6 7 7 6 5 6 9 9 8 10 9 9 10 10 9 10 10 10 11 11 12
1 1 1 1 1 1 1 2 2 2 2 2 3 3 4 4 4 5 5 5 5 13 17 11 8 8 8 7 7 6 7 6 6 8 8 9 7 8 9 9 9 9 10 11 11 11 16
2 1 1 1 1 1 1 1 2 2 2 3 4 4 5 5 6 4 5 6 13 16 11 11 10 9 10 9 9 9 9 9 10 15 14 9 9 8 7 9 9 10 11 16 15 16 14
2 2 1 1 1 1 1 1 2 2 2 3 4 5 6 6 4 5 5 8 15 14 12 9 10 10 11 10 10 9 10 10 8 10 11 14 14 10 8 10 11 11 12 15 17 16 14
2 1 1 1 1 1 1 1 2 2 3 3 5 5 5 5 5 6 7 13 13 14 11 10 10 12 11 11 11 11 10 10 9 9 12 12 13 9 9 9 10 11 11 12 14 16 14
2 2 1 1 1 2 2 2 2 3 3 4 5 6 6 6 6 7 9 13 12 11 10 10 12 11 13 12 12 11 12 10 10 9 9 12 14 11 10 9 9 11 11 13 12 17 16
2 1 1 1 1 1 2 2 2 3 3 5 7 7 6 6 6 8 11 12 12 10 9 11 12 12 12 12 12 12 13 10 9 9 9 10 12 12 11 12 12 11 12 13 13 14 15
2 1 1 1 1 2 2 2 2 3 4 6 7 7 6 7 8 10 11 11 10 11 10 10 10 11 12 12 12 12 12 11 9 9 11 10 11 13 13 11 10 11 12 13 13 16 15
1 1 1 1 2 2 2 2 2 3 4 7 8 8 6 8 10 11 11 11 11 11 11 11 12 11 11 13 14 12 11 9 9 10 11 11 12 14 14 12 11 12 12 13 13 13 14
1 1 1 2 2 2 2 2 2 3 4 7 8 9 8 9 10 11 12 12 13 10 11 11 12 11 12 13 13 14 13 11 9 9 10 10 13 14 14 15 12 13 12 12 12 14 14
1 1 1 2 2 2 2 2 3 3 5 7 9 11 11 11 11 12 12 12 13 13 11 11 12 12 13 14 14 14 13 12 11 11 11 12 15 15 14 14 14 14 13 13 13 13 14
1 1 2 2 2 2 3 3 3 4 6 8 9 10 11 12 12 12 13 13 13 13 12 12 13 12 12 13 13 14 13 13 13 11 12 13 15 15 16 15 14 15 14 14 13 13 13
1 1 1 2 3 3 3 4 4 4 6 8 10 10 9 12 12 12 12 13 12 12 11 11 12 12 13 12 11 11 11 12 11 12 13 13 14 15 16 16 15 16 15 15 15 14 13
2 2 2 2 3 4 4 4 4 5 6 7 9 9 10 13 12 12 12 12 12 12 12 11 11 12 11 10 10 11 11 12 12 12 12 14 14 14 15 15 18 15 14 13 14 14 13
3 2 2 3 3 4 4 4 4 4 6 7 9 9 10 12 12 12 12 12 12 12 12 12 11 11 10 12 13 14 14 15 14 14 13 12 13 15 16 17 14 15 15 14 14 15 13
5 5 4 4 3 3 4 4 4 4 6 7 8 8 9 11 13 12 12 12 12 12 12 13 11 10 11 12 13 15 16 16 16 16 14 14 13 14 16 18 18 14 13 12 12 15 12
6 6 5 5 5 5 4 4 4 4 5 6 7 8 8 10 10 11 12 12 12 12 12 12 12 12 11 12 14 15 15 15 16 16 16 15 14 15 15 16 15 12 12 12 16 14 11
6 6 6 6 6 6 5 5 4 4 5 5 7 8 7 9 10 10 10 11 12 12 12 12 12 12 13 14 14 14 15 14 15 15 15 15 15 16 15 17 18 12 13 14 11 11 11
7 7 7 7 6 6 6 5 5 5 4 5 7 8 7 9 9 9 8 8 9 9 10 12 12 12 11 12 13 13 14 15 15 15 15 16 13 14 13 13 11 11 11 11 10 10 10